| time (UTC) | temp C | wind direction | speed KPH | gust KPH | rain 1hr cm | rain 24hr cm | rain mn cm | humidity % | barometer mb |
| 20260906193046 | 20 | 92 | 0.0 | 0.0 | 0.00 | 0.00 | 0.00 | 65 | 1020.9 |
| 20260906192044 | 20 | 93 | 0.0 | 0.0 | 0.00 | 0.00 | 0.00 | 65 | 1021.0 |
| 20260906191658 | 20 | 90 | 0.0 | 0.0 | 0.00 | 0.00 | 0.00 | 65 | 1020.8 |
| 20260906191556 | 20 | 90 | 0.0 | 0.0 | 0.00 | 0.00 | 0.00 | 65 | 1021.0 |
| 20260906191042 | 20 | 13 | 0.0 | 0.0 | 0.00 | 0.00 | 0.00 | 64 | 1021.1 |
| 20260906190555 | 20 | 13 | 0.0 | 0.0 | 0.00 | 0.00 | 0.00 | 64 | 1021.2 |
| 20260906190144 | 20 | 13 | 0.0 | 0.0 | 0.00 | 0.00 | 0.00 | 64 | 1021.1 |
| 20260906190043 | 20 | 13 | 0.0 | 0.0 | 0.00 | 0.00 | 0.00 | 64 | 1021.3 |
| 20260906185555 | 20 | 21 | 0.0 | 0.0 | 0.00 | 0.00 | 0.00 | 64 | 1021.3 |
| 20260906185040 | 21 | 36 | 0.0 | 0.0 | 0.00 | 0.00 | 0.00 | 64 | 1021.2 |
| 20260906184652 | 20 | 33 | 0.0 | 0.0 | 0.00 | 0.00 | 0.00 | 63 | 1021.0 |
| 20260906184551 | 21 | 33 | 0.0 | 0.0 | 0.00 | 0.00 | 0.00 | 63 | 1021.2 |
| 20260906184117 | 21 | 17 | 0.0 | 0.0 | 0.00 | 0.00 | 0.00 | 63 | 1021.2 |
| 20260906183548 | 21 | 14 | 0.0 | 0.0 | 0.00 | 0.00 | 0.00 | 62 | 1021.3 |
| 20260906183153 | 21 | 19 | 0.0 | 0.0 | 0.00 | 0.00 | 0.00 | 62 | 1021.1 |
| 20260906183052 | 21 | 19 | 0.0 | 0.0 | 0.00 | 0.00 | 0.00 | 62 | 1021.3 |
| 20260906182544 | 21 | 19 | 0.0 | 0.0 | 0.00 | 0.00 | 0.00 | 62 | 1021.3 |
| 20260906182050 | 21 | 19 | 0.0 | 0.0 | 0.00 | 0.00 | 0.00 | 61 | 1021.3 |
| 20260906181645 | 21 | 19 | 0.0 | 0.0 | 0.00 | 0.00 | 0.00 | 61 | 1021.1 |
| 20260906181542 | 21 | 19 | 0.0 | 0.0 | 0.00 | 0.00 | 0.00 | 61 | 1021.3 |
| 20260906181050 | 21 | 16 | 0.0 | 0.0 | 0.00 | 0.00 | 0.00 | 60 | 1021.3 |
| 20260906180541 | 21 | 16 | 0.0 | 0.0 | 0.00 | 0.00 | 0.00 | 60 | 1021.4 |
| 20260906180148 | 21 | 16 | 0.0 | 0.0 | 0.00 | 0.00 | 0.00 | 60 | 1021.3 |
| 20260906180047 | 21 | 16 | 0.0 | 0.0 | 0.00 | 0.00 | 0.00 | 60 | 1021.4 |
| 20260906175620 | 22 | 17 | 0.0 | 0.0 | 0.00 | 0.00 | 0.00 | 59 | 1021.4 |
| 20260906175044 | 22 | 17 | 0.0 | 0.0 | 0.00 | 0.00 | 0.00 | 59 | 1021.5 |
| 20260906174616 | 22 | 98 | 0.0 | 0.0 | 0.00 | 0.00 | 0.00 | 59 | 1021.4 |
| 20260906174041 | 22 | 115 | 0.0 | 0.0 | 0.00 | 0.00 | 0.00 | 58 | 1021.3 |
| 20260906173554 | 22 | 16 | 0.0 | 0.0 | 0.00 | 0.00 | 0.00 | 57 | 1021.4 |
| 20260906173143 | 22 | 21 | 0.0 | 0.0 | 0.00 | 0.00 | 0.00 | 57 | 1021.2 |
| 20260906173042 | 22 | 20 | 0.0 | 0.0 | 0.00 | 0.00 | 0.00 | 57 | 1021.4 |
| 20260906172611 | 22 | 13 | 0.0 | 0.0 | 0.00 | 0.00 | 0.00 | 57 | 1021.4 |
| 20260906172038 | 22 | 5 | 0.0 | 0.0 | 0.00 | 0.00 | 0.00 | 57 | 1021.4 |
| 20260906171609 | 22 | 28 | 0.0 | 0.0 | 0.00 | 0.00 | 0.00 | 57 | 1021.5 |
| 20260906171055 | 22 | 13 | 0.0 | 0.0 | 0.00 | 0.00 | 0.00 | 56 | 1021.6 |
| 20260906170546 | 23 | 21 | 0.0 | 0.0 | 0.00 | 0.00 | 0.00 | 56 | 1021.6 |
| 20260906170154 | 22 | 46 | 0.0 | 0.0 | 0.00 | 0.00 | 0.00 | 56 | 1021.6 |
| 20260906170053 | 23 | 59 | 0.0 | 0.0 | 0.00 | 0.00 | 0.00 | 55 | 1021.7 |
| 20260906165543 | 23 | 130 | 0.0 | 0.0 | 0.00 | 0.00 | 0.00 | 55 | 1021.7 |
| 20260906165050 | 23 | 61 | 0.0 | 0.0 | 0.00 | 0.00 | 0.00 | 55 | 1021.7 |
| 20260906164644 | 23 | 81 | 0.0 | 0.0 | 0.00 | 0.00 | 0.00 | 54 | 1021.6 |
| 20260906164543 | 23 | 68 | 0.0 | 0.0 | 0.00 | 0.00 | 0.00 | 54 | 1021.7 |
| 20260906164049 | 23 | 146 | 0.0 | 0.0 | 0.00 | 0.00 | 0.00 | 54 | 1021.8 |
| 20260906163544 | 23 | 190 | 0.0 | 0.0 | 0.00 | 0.00 | 0.00 | 54 | 1021.9 |
| 20260906163050 | 23 | 19 | 0.0 | 0.0 | 0.00 | 0.00 | 0.00 | 53 | 1021.9 |
| 20260906163003 | 23 | 19 | 0.0 | 0.0 | 0.00 | 0.00 | 0.00 | 53 | 1021.8 |
| 20260906162602 | 23 | 19 | 0.0 | 0.0 | 0.00 | 0.00 | 0.00 | 51 | 1021.9 |
| 20260906162050 | 23 | 15 | 0.0 | 0.0 | 0.00 | 0.00 | 0.00 | 51 | 1021.9 |
| 20260906161616 | 23 | 22 | 0.0 | 0.0 | 0.00 | 0.00 | 0.00 | 51 | 1022.0 |
| 20260906161045 | 23 | 5 | 0.0 | 0.0 | 0.00 | 0.00 | 0.00 | 50 | 1022.0 |
| 20260906160557 | 23 | 117 | 0.0 | 0.0 | 0.00 | 0.00 | 0.00 | 51 | 1022.0 |
| 20260906160042 | 23 | 41 | 0.0 | 0.0 | 0.00 | 0.00 | 0.00 | 50 | 1022.1 |
| 20260906155553 | 23 | 31 | 0.0 | 0.0 | 0.00 | 0.00 | 0.00 | 50 | 1022.1 |
| 20260906155040 | 23 | 184 | 0.0 | 0.0 | 0.00 | 0.00 | 0.00 | 49 | 1022.1 |
| 20260906154612 | 23 | 182 | 0.0 | 0.0 | 0.00 | 0.00 | 0.00 | 48 | 1022.1 |
| 20260906154508 | 23 | 30 | 0.0 | 0.0 | 0.00 | 0.00 | 0.00 | 49 | 1022.0 |
| 20260906154039 | 23 | 9 | 0.0 | 0.0 | 0.00 | 0.00 | 0.00 | 50 | 1022.1 |
| 20260906153552 | 23 | 263 | 0.0 | 0.0 | 0.00 | 0.00 | 0.00 | 49 | 1022.1 |
| 20260906153139 | 23 | 355 | 0.0 | 0.0 | 0.00 | 0.00 | 0.00 | 49 | 1021.9 |
| 20260906153039 | 23 | 355 | 0.0 | 0.0 | 0.00 | 0.00 | 0.00 | 50 | 1022.1 |
| 20260906152553 | 23 | 355 | 0.0 | 0.0 | 0.00 | 0.00 | 0.00 | 50 | 1022.3 |
| 20260906152101 | 23 | 176 | 0.0 | 0.0 | 0.00 | 0.00 | 0.00 | 51 | 1022.3 |
| 20260906151652 | 23 | 20 | 0.0 | 0.0 | 0.00 | 0.00 | 0.00 | 51 | 1022.2 |
| 20260906151549 | 23 | 84 | 0.0 | 0.0 | 0.00 | 0.00 | 0.00 | 51 | 1022.3 |
| 20260906151057 | 23 | 175 | 0.0 | 0.0 | 0.00 | 0.00 | 0.00 | 51 | 1022.5 |
| 20260906150546 | 23 | 132 | 0.0 | 0.0 | 0.00 | 0.00 | 0.00 | 50 | 1022.5 |
| 20260906150053 | 23 | 31 | 0.0 | 0.0 | 0.00 | 0.00 | 0.00 | 50 | 1022.5 |
| 20260906150010 | 23 | 242 | 0.0 | 0.0 | 0.00 | 0.00 | 0.00 | 51 | 1022.5 |
| 20260906145602 | 23 | 348 | 0.0 | 0.0 | 0.00 | 0.00 | 0.00 | 51 | 1022.6 |
| 20260906145050 | 23 | 140 | 0.0 | 0.0 | 0.00 | 0.00 | 0.00 | 51 | 1022.6 |
| 20260906144601 | 23 | 161 | 0.0 | 0.0 | 0.00 | 0.00 | 0.00 | 52 | 1022.7 |
| 20260906144050 | 23 | 178 | 0.0 | 0.0 | 0.00 | 0.00 | 0.00 | 52 | 1022.8 |
| 20260906143601 | 23 | 23 | 0.0 | 0.0 | 0.00 | 0.00 | 0.00 | 52 | 1022.7 |
| 20260906143151 | 22 | 34 | 0.0 | 0.0 | 0.00 | 0.00 | 0.00 | 53 | 1022.7 |
| 20260906143049 | 23 | 86 | 0.0 | 0.0 | 0.00 | 0.00 | 0.00 | 54 | 1022.8 |
| 20260906142633 | 23 | 108 | 0.0 | 0.0 | 0.00 | 0.00 | 0.00 | 54 | 1022.9 |
| 20260906141538 | 22 | 155 | 0.0 | 0.0 | 0.00 | 0.00 | 0.00 | 53 | 1022.8 |
| 20260906140036 | 22 | 101 | 0.0 | 0.0 | 0.00 | 0.00 | 0.00 | 53 | 1022.9 |
| 20260906134534 | 22 | 360 | 0.0 | 0.0 | 0.00 | 0.00 | 0.00 | 51 | 1023.2 |
| 20260906133031 | 22 | 173 | 0.0 | 0.0 | 0.00 | 0.00 | 0.00 | 55 | 1023.4 |
| 20260906131528 | 22 | 17 | 0.0 | 0.0 | 0.00 | 0.00 | 0.00 | 54 | 1023.7 |
| 20260906130026 | 22 | 19 | 0.0 | 0.0 | 0.00 | 0.00 | 0.00 | 54 | 1023.8 |
| 20260906124523 | 22 | 173 | 0.0 | 0.0 | 0.00 | 0.00 | 0.00 | 55 | 1024.1 |
| 20260906123037 | 22 | 185 | 0.0 | 0.0 | 0.00 | 0.00 | 0.00 | 54 | 1024.3 |
| 20260906121519 | 22 | 117 | 0.0 | 0.0 | 0.00 | 0.00 | 0.00 | 53 | 1024.5 |
| 20260906120017 | 22 | 28 | 0.0 | 0.0 | 0.00 | 0.00 | 0.00 | 56 | 1024.5 |
| 20260906114516 | 22 | 180 | 0.0 | 0.0 | 0.00 | 0.00 | 0.00 | 57 | 1024.7 |
| 20260906113012 | 21 | 20 | 0.0 | 0.0 | 0.00 | 0.00 | 0.00 | 59 | 1024.9 |
| 20260906111509 | 21 | 32 | 0.0 | 0.0 | 0.00 | 0.00 | 0.00 | 59 | 1025.1 |
| 20260906110006 | 21 | 185 | 0.0 | 0.0 | 0.00 | 0.00 | 0.00 | 60 | 1025.3 |
| 20260906104503 | 20 | 12 | 0.0 | 0.0 | 0.00 | 0.00 | 0.00 | 59 | 1025.4 |
| 20260906103001 | 20 | 176 | 0.0 | 0.0 | 0.00 | 0.00 | 0.00 | 62 | 1025.5 |
| 20260906101558 | 20 | 17 | 0.0 | 0.0 | 0.00 | 0.00 | 0.00 | 63 | 1025.5 |
| 20260906100100 | 20 | 23 | 0.0 | 0.0 | 0.00 | 0.00 | 0.00 | 64 | 1025.7 |
| 20260906094553 | 19 | 186 | 0.0 | 0.0 | 0.00 | 0.00 | 0.00 | 67 | 1026.0 |
| 20260906093057 | 18 | 61 | 0.0 | 0.0 | 0.00 | 0.00 | 0.00 | 68 | 1026.3 |
| 20260906091548 | 18 | 18 | 0.0 | 0.0 | 0.00 | 0.00 | 0.00 | 73 | 1026.2 |
| 20260906090058 | 17 | 77 | 0.0 | 0.0 | 0.00 | 0.00 | 0.00 | 77 | 1026.4 |
| 20260906084539 | 16 | 69 | 0.0 | 0.0 | 0.00 | 0.00 | 0.00 | 80 | 1026.7 |
| 20260906083038 | 16 | 31 | 0.0 | 0.0 | 0.00 | 0.00 | 0.00 | 83 | 1026.7 |
| 20260906081532 | 15 | 15 | 0.0 | 0.0 | 0.00 | 0.00 | 0.00 | 85 | 1026.6 |
| 20260906080028 | 15 | 360 | 0.0 | 0.0 | 0.00 | 0.00 | 0.00 | 87 | 1026.6 |
| 20260906074526 | 14 | 355 | 0.0 | 0.0 | 0.00 | 0.00 | 0.00 | 89 | 1026.5 |
| 20260906073022 | 13 | 355 | 0.0 | 0.0 | 0.00 | 0.00 | 0.00 | 91 | 1026.4 |
| 20260906071519 | 13 | 355 | 0.0 | 0.0 | 0.00 | 0.00 | 0.00 | 92 | 1026.4 |
| 20260906070017 | 12 | 238 | 0.0 | 0.0 | 0.00 | 0.00 | 0.00 | 92 | 1026.4 |
| 20260906064516 | 12 | 229 | 0.0 | 0.0 | 0.00 | 0.00 | 0.00 | 92 | 1026.3 |
| 20260906063021 | 11 | 230 | 0.0 | 0.0 | 0.00 | 0.00 | 0.00 | 93 | 1026.2 |
| 20260906061514 | 11 | 313 | 0.0 | 0.0 | 0.00 | 0.00 | 0.00 | 93 | 1026.2 |
| 20260906060014 | 11 | 315 | 0.0 | 0.0 | 0.00 | 0.00 | 0.00 | 92 | 1026.1 |
| 20260906054510 | 10 | 360 | 0.0 | 0.0 | 0.00 | 0.00 | 0.00 | 92 | 1026.1 |
| 20260906053009 | 10 | 360 | 0.0 | 0.0 | 0.00 | 0.00 | 0.00 | 92 | 1026.2 |
| 20260906051510 | 10 | 360 | 0.0 | 0.0 | 0.00 | 0.00 | 0.00 | 92 | 1026.4 |
| 20260906050008 | 10 | 360 | 0.0 | 0.0 | 0.00 | 0.00 | 0.00 | 92 | 1026.4 |
| 20260906044506 | 10 | 360 | 0.0 | 0.0 | 0.00 | 0.00 | 0.00 | 92 | 1026.4 |
| 20260906043006 | 10 | 360 | 0.0 | 0.0 | 0.00 | 0.00 | 0.00 | 91 | 1026.3 |
| 20260906041507 | 11 | 360 | 0.0 | 0.0 | 0.00 | 0.00 | 0.00 | 92 | 1026.2 |
| 20260906040014 | 10 | 360 | 0.0 | 0.0 | 0.00 | 0.00 | 0.00 | 91 | 1026.1 |
| 20260906034504 | 10 | 360 | 0.0 | 0.0 | 0.00 | 0.00 | 0.00 | 91 | 1025.9 |
| 20260906033004 | 10 | 360 | 0.0 | 0.0 | 0.00 | 0.00 | 0.00 | 91 | 1026.1 |
| 20260906031502 | 11 | 360 | 0.0 | 0.0 | 0.00 | 0.00 | 0.00 | 91 | 1026.7 |
| 20260906030001 | 11 | 360 | 0.0 | 0.0 | 0.00 | 0.00 | 0.00 | 90 | 1026.7 |
| 20260906024559 | 11 | 360 | 0.0 | 0.0 | 0.00 | 0.00 | 0.00 | 90 | 1026.4 |
| 20260906023059 | 11 | 360 | 0.0 | 0.0 | 0.00 | 0.00 | 0.00 | 90 | 1026.3 |
| 20260906021603 | 11 | 360 | 0.0 | 0.0 | 0.00 | 0.00 | 0.00 | 90 | 1026.3 |
| 20260906020105 | 11 | 360 | 0.0 | 0.0 | 0.00 | 0.00 | 0.00 | 89 | 1026.1 |
| 20260906014556 | 11 | 360 | 0.0 | 0.0 | 0.00 | 0.00 | 0.00 | 89 | 1026.4 |
| 20260906013104 | 11 | 360 | 0.0 | 0.0 | 0.00 | 0.00 | 0.00 | 89 | 1026.3 |
| 20260906011554 | 11 | 360 | 0.0 | 0.0 | 0.00 | 0.00 | 0.00 | 89 | 1026.2 |
| 20260906010054 | 11 | 360 | 0.0 | 0.0 | 0.00 | 0.00 | 0.00 | 89 | 1025.9 |
| 20260906004552 | 11 | 360 | 0.0 | 0.0 | 0.00 | 0.00 | 0.00 | 88 | 1026.0 |
| 20260906003051 | 11 | 360 | 0.0 | 0.0 | 0.00 | 0.00 | 0.00 | 88 | 1026.1 |
| 20260906001550 | 11 | 360 | 0.0 | 0.0 | 0.00 | 0.00 | 0.00 | 88 | 1026.1 |
| 20260906000100 | 11 | 360 | 0.0 | 0.0 | 0.00 | 0.00 | 0.00 | 88 | 1026.2 |
| 20260905234556 | 11 | 360 | 0.0 | 0.0 | 0.00 | 0.00 | 0.00 | 87 | 1026.2 |
| 20260905233047 | 12 | 360 | 0.0 | 0.0 | 0.00 | 0.00 | 0.00 | 87 | 1026.2 |
| 20260905231545 | 12 | 360 | 0.0 | 0.0 | 0.00 | 0.00 | 0.00 | 87 | 1026.0 |
| 20260905230044 | 12 | 360 | 0.0 | 0.0 | 0.00 | 0.00 | 0.00 | 86 | 1026.0 |
| 20260905224542 | 12 | 360 | 0.0 | 0.0 | 0.00 | 0.00 | 0.00 | 86 | 1026.0 |
| 20260905223045 | 12 | 360 | 0.0 | 0.0 | 0.00 | 0.00 | 0.00 | 85 | 1025.9 |
| 20260905221538 | 12 | 360 | 0.0 | 0.0 | 0.00 | 0.00 | 0.00 | 84 | 1025.7 |
| 20260905220038 | 12 | 360 | 0.0 | 0.0 | 0.00 | 0.00 | 0.00 | 84 | 1025.7 |
| 20260905214533 | 13 | 360 | 0.0 | 0.0 | 0.00 | 0.00 | 0.00 | 83 | 1025.7 |
| 20260905213031 | 13 | 360 | 0.0 | 0.0 | 0.00 | 0.00 | 0.00 | 83 | 1025.5 |
| 20260905211529 | 13 | 360 | 0.0 | 0.0 | 0.00 | 0.00 | 0.00 | 82 | 1025.4 |
| 20260905210043 | 13 | 360 | 0.0 | 0.0 | 0.00 | 0.00 | 0.00 | 81 | 1025.3 |
| 20260905204534 | 14 | 360 | 0.0 | 0.0 | 0.00 | 0.00 | 0.00 | 80 | 1025.2 |
| 20260905203023 | 14 | 360 | 0.0 | 0.0 | 0.00 | 0.00 | 0.00 | 79 | 1025.0 |
| 20260905201521 | 14 | 360 | 0.0 | 0.0 | 0.00 | 0.00 | 0.00 | 79 | 1025.1 |
| 20260905200024 | 15 | 360 | 0.0 | 0.0 | 0.00 | 0.00 | 0.00 | 77 | 1025.0 |
| 20260905194518 | 15 | 360 | 0.0 | 0.0 | 0.00 | 0.00 | 0.00 | 76 | 1024.8 |